SCP
0 0 0 0 0 0 0 0 0 0 0 0 0 0 0 0 0 0 0 0 0 0 0 0 0 0 0 0 0 0 0 0 0 0 0 0 0 0
0 0 0 0 0 0 0 0 0 0 0 0 0 0 0 0 0 0 0 0 0 0 0 0 0 0 0 0 0 0 0 0 0 0 0 0 0 0
0 0 0 0 0 0 0 0 0 0 0 0 0 0 0 0 0 0 0 0 0 0 0 0 0 0 0 0 0 0 0 0 0 0 0 0 0 0
0 0 0 0 0 0 0 0 0 0 0 0 0 0 0 0 0 0 0 0 0 0 0 0 0 0 0 0 0 0 0 0 0 0 0 0 0 0
0 0 0 0 0 0 0 0 0 0 0 0 0 0 0 0 0 0 0 0 0 0 0 0 0 0 0 0 0 0 0 0 0 0 0 0 0 0
0 0 0 0 0 0 0 0 0 0 0 0 0 0 0 0 0 0 0 0 0 0 0 0 0 0 0 0 0 0 0 0 0 0 0 0 0 0
0 0 0 0 0 0 0 0 0 0 0 0 0 0 0 0 0 0 0 0 0 0 0 0 0 0 0 0 0 0 0 0 0 0 0 0 0 0
0 0 0 0 0 0 0 0 0 0 0 0 0 0 0 0 0 0 0 0 0 0 0 0 0 0 0 0 0 0 0 0 0 0 0 0 0 0
0 0 0 0 0 0 0 0 0 0 0 0 0 0 0 0 0 0 0 0 0 0 0 0 0 0 0 0 0 0 0 0 0 0 0 0 0 0
0 0 0 0 0 0 0 0 0 0 0 0 0 0 0 0 0 0 0 0 0 0 0 0 0 0 0 0 0 0 0 0 0 0 0 0 0 0
0 0 0 0 0 0 0 0 0 0 0 0 0 0 0 0 0 0 0 0 0 0 0 0 0 0 0 0 0 0 0 0 0 0 0 0 0 0
0 0 0 0 0 0 0 0 0 0 0 0 0 0 0 0 0 0 0 0 0 0 0 0 0 0 0 0 0 0 0 0 0 0 0 0 0 0
0 0 0 0 0 0 0 0 0 0 0 0 0 0 0 0 0 0 0 0 0 0 0 0 0 0 0 0 0 0 0 0 0 0 0 0 0 0
0 0 0 0 0 0 0 0 0 0 0 0 0 0 0 0 0 0 0 0 0 0 0 0 0 0 0 0 0 0 0 0 0 0 0 0 0 0
0 0 0 0 0 0 0 0 0 0 0 0 0 0 0 0 0 0 0 0 0 0 0 0 0 0 0 0 0 0 0 0 0 0 0 0 0 1
0 0 0 0 0 0 0 0 0 0 0 0 0 0 0 0 0 0 0 0 0 0 0 0 0 0 0 0 0 0 0 0 0 0 0 0 0 1
0 0 0 0 0 0 0 0 0 0 0 0 0 0 0 0 0 0 0 0 0 0 0 0 0 0 0 0 0 0 0 0 0 0 0 0 0 0
0 0 0 0 0 0 0 0 0 0 0 0 0 0 0 0 0 0 0 0 0 0 0 0 0 0 0 0 0 0 0 0 0 0 0 0 0 0
0 0 0 0 0 0 0 0 0 0 0 0 0 0 0 0 0 0 0 0 0 0 0 0 0 0 0 0 0 0 0 0 0 0 0 0 0 0
0 0 0 0 0 0 0 0 0 0 0 0 0 0 0 0 0 0 0 0 0 0 0 0 0 0 0 0 0 0 0 0 0 0 0 0 0 0
0 0 0 0 0 0 0 0 0 0 0 0 0 0 0 0 0 0 0 0 0 0 0 0 0 0 0 0 0 0 0 0 0 0 0 0 0 0
0 0 0 0 0 0 0 0 0 0 0 0 0 0 0 0 0 0 0 0 0 0 0 0 0 0 0 0 0 0 0 0 0 0 0 0 0 0
0 0 0 0 0 0 0 0 0 0 0 0 0 0 0 0 0 0 0 0 0 0 0 0 0 0 0 0 0 0 0 0 0 0 0 0 0 0
Wind_Speed
3 3 2 1 2 2 2 3 3 2 2 3 2 2 2 3 4 4 5 7 8 9 10 10 10 10 10 10 10 10 10 10 10 10 10 10 10 11
2 3 2 1 1 1 2 2 2 3 3 2 2 2 3 2 2 3 4 6 7 8 8 9 9 9 9 10 10 10 11 11 11 11 11 11 11 11
3 3 2 2 2 1 1 2 2 2 3 2 2 2 2 3 3 2 2 2 3 5 6 7 7 8 8 9 9 10 10 11 11 11 12 12 12 12
3 3 2 2 2 2 1 2 2 2 3 2 1 1 2 2 2 2 2 2 2 3 5 6 6 7 7 7 8 8 9 10 10 11 11 12 12 13
2 2 1 2 1 1 1 1 1 1 2 2 1 1 1 2 2 2 3 3 3 3 3 3 3 4 4 4 5 6 6 7 8 9 10 10 11 12
3 2 1 2 1 1 1 1 1 1 1 1 1 1 1 2 2 2 3 3 3 4 4 3 4 4 4 4 4 4 4 5 6 7 8 9 10 10
4 4 4 5 4 2 1 1 1 1 1 0 0 1 2 2 3 2 3 3 2 3 3 3 3 3 3 4 4 4 4 4 5 6 6 7 8 9
5 5 6 7 9 10 10 9 6 3 1 1 1 2 2 2 2 3 2 3 2 3 3 3 3 3 4 3 5 6 6 6 6 6 6 6 7 8
5 5 5 6 6 6 10 13 14 14 9 3 3 3 3 3 3 3 2 2 2 4 3 3 3 3 4 4 5 6 6 6 6 7 7 7 8 8
7 6 6 6 6 6 8 10 10 10 9 7 6 5 5 4 3 2 2 2 2 3 4 3 4 4 5 4 4 6 6 7 8 8 9 8 9 9
8 8 7 7 9 9 9 9 9 7 10 13 12 11 12 12 8 4 4 3 3 2 4 4 4 5 5 3 3 6 7 8 9 10 10 10 9 9
7 8 12 11 11 11 9 8 8 6 6 7 9 10 9 11 13 7 5 4 3 3 4 4 4 5 5 3 4 6 7 8 9 10 10 10 9 7
7 7 7 13 14 13 10 8 8 6 6 7 6 7 7 7 7 7 5 3 3 2 4 4 3 4 4 6 6 6 6 7 7 7 8 9 9 7
7 6 7 13 14 13 10 11 11 8 6 6 6 7 6 6 6 6 7 5 3 3 4 4 3 4 5 7 6 6 7 7 7 7 7 8 8 8
8 12 11 12 12 11 14 13 9 7 6 6 6 5 5 5 5 5 6 6 6 5 4 4 5 5 5 6 7 7 8 8 6 7 7 8 7 7
8 11 13 13 10 10 9 8 7 6 6 5 4 4 4 5 5 5 5 6 5 5 6 7 6 6 6 8 8 9 8 7 7 8 9 9 8 7
7 6 6 6 7 6 6 6 6 6 5 4 4 5 5 5 5 5 5 5 5 6 7 7 7 7 8 8 8 8 8 8 8 9 9 9 9 8
8 6 6 5 5 5 5 5 5 5 5 4 4 5 5 5 6 5 5 5 6 6 7 7 8 8 7 5 5 7 8 9 9 9 9 9 10 9
7 6 5 4 4 4 3 3 4 4 4 4 5 5 5 5 5 6 6 6 6 7 7 7 7 7 9 10 7 5 9 10 9 9 8 8 9 10
5 4 4 3 3 3 3 3 3 4 4 4 5 5 5 5 6 6 6 7 7 7 8 8 7 7 8 8 8 10 10 9 8 9 9 9 8 10
3 3 2 2 2 2 2 2 3 4 5 5 5 5 5 5 5 6 6 8 7 7 8 9 9 12 8 6 7 8 8 9 9 8 9 9 9 7
2 2 1 1 1 1 2 2 3 4 5 5 5 5 5 5 6 7 7 7 7 7 9 9 10 9 6 7 9 10 10 10 9 9 9 8 7 6
1 1 1 1 1 1 2 3 4 4 4 5 5 5 5 5 5 6 7 7 7 8 9 9 8 7 7 8 8 8 11 11 9 9 8 9 10 11
Wind_Direction
173 171 171 188 185 189 178 169 164 200 264 280 287 296 278 256 255 246 247 250 247 244 242 241 243 246 249 251 253 253 254 256 258 259 260 261 263 265
174 168 177 191 182 180 183 185 181 182 226 257 263 289 304 305 276 251 253 258 255 253 249 246 246 249 252 253 254 255 255 255 255 256 256 257 258 259
176 175 191 181 180 184 176 177 186 183 215 260 261 291 306 326 336 320 288 273 273 260 256 252 250 252 254 256 258 259 259 258 257 256 255 255 254 254
181 176 197 184 185 184 180 192 198 201 208 244 280 299 305 329 328 332 331 315 291 284 266 259 258 260 262 263 265 264 262 262 260 259 258 257 255 254
162 168 181 159 174 169 179 195 210 205 202 217 266 306 316 345 341 343 350 345 334 334 321 308 302 298 293 292 286 277 271 268 266 263 262 261 261 259
128 126 119 137 170 169 166 196 176 160 170 204 274 329 330 345 0 353 349 354 354 358 0 4 6 1 350 337 323 310 296 285 277 273 271 269 267 266
94 85 74 74 73 82 86 83 116 121 124 109 24 23 11 5 359 347 338 335 346 5 349 356 360 357 352 352 351 351 340 326 313 302 291 284 279 274
93 81 72 61 64 68 69 64 60 60 58 64 48 37 12 357 351 351 345 349 339 0 341 330 346 341 339 348 4 3 1 352 343 332 322 310 296 284
82 78 72 62 63 74 72 67 58 53 54 68 59 35 14 357 350 352 352 341 321 333 330 314 340 333 333 347 2 3 2 358 351 339 328 318 310 301
71 73 77 66 65 82 83 73 64 53 51 58 63 47 35 15 5 353 331 324 306 356 357 321 331 322 323 324 353 0 358 351 339 329 321 312 303 296
64 62 70 71 66 80 85 81 70 56 57 60 59 52 45 39 32 28 21 14 352 3 10 340 326 318 308 301 324 349 347 338 328 321 315 310 305 299
71 62 61 70 66 70 78 80 74 55 49 50 45 38 37 36 37 36 21 13 353 341 4 343 329 331 311 303 320 329 325 320 317 315 314 314 312 304
81 69 63 69 70 68 71 72 74 71 62 58 50 40 33 29 25 22 19 16 2 341 347 339 326 327 306 305 308 311 318 319 317 312 310 312 311 303
88 81 75 74 72 68 68 66 63 62 58 53 45 33 24 17 8 3 3 2 350 321 324 336 327 323 314 306 305 311 312 312 310 309 314 315 307 299
89 90 82 75 72 67 62 60 56 55 52 48 38 22 7 356 355 354 357 354 345 339 347 337 326 315 302 298 301 303 308 308 308 312 315 314 310 307
86 80 73 67 66 63 56 51 50 50 50 43 26 7 359 359 2 357 349 348 343 337 334 332 325 315 303 297 293 297 302 303 308 311 311 305 300 296
95 78 69 64 61 56 52 47 43 40 37 27 17 8 2 358 353 351 345 342 341 335 332 332 330 317 296 287 292 298 307 309 309 310 307 304 300 296
85 78 73 68 64 57 51 43 36 29 19 12 10 3 355 349 344 343 343 339 334 328 324 325 329 328 324 311 268 294 306 309 309 308 304 301 301 301
84 83 78 70 63 56 47 38 25 11 4 6 3 355 348 344 340 339 339 335 330 325 323 324 329 331 327 326 315 292 305 309 308 307 306 302 298 300
80 86 80 71 62 53 40 25 11 5 3 360 356 352 348 340 337 336 334 332 326 323 323 326 330 329 319 311 306 308 303 302 307 308 309 305 296 289
78 78 76 68 53 39 25 13 5 359 356 349 348 347 343 336 332 330 327 325 322 323 323 321 318 314 304 295 299 309 315 311 300 302 309 308 308 309
84 81 69 58 42 26 14 5 359 355 351 346 340 337 335 330 327 326 325 324 322 319 315 313 316 319 317 315 316 316 318 321 320 312 301 294 307 314
101 94 83 52 29 14 5 357 352 345 342 337 333 331 330 326 322 319 319 318 318 319 320 320 322 322 320 317 316 316 320 325 327 329 330 327 312 297